GFSCGP_prec_pwat_177.txt.gz
Precipitable_Water
0.40 0.30 0.27 0.30 0.31 0.31 0.30 0.28 0.25 0.29 0.35 0.32 0.29 0.28 0.28 0.31 0.35 0.33 0.34 0.35 0.37 0.37 0.41 0.43 0.45 0.44 0.44 0.46 0.49 0.68 0.69 0.71 0.83 1.18 1.31 1.26 1.24 1.31 1.04 0.82 0.68 0.60 0.54 0.51
0.33 0.27 0.34 0.35 0.34 0.33 0.31 0.27 0.26 0.30 0.35 0.34 0.31 0.25 0.30 0.31 0.34 0.35 0.36 0.36 0.38 0.39 0.40 0.42 0.43 0.44 0.43 0.43 0.63 0.76 0.73 0.72 0.82 1.08 1.27 1.33 1.26 1.21 1.02 0.77 0.64 0.59 0.54 0.51
0.25 0.28 0.36 0.34 0.32 0.30 0.29 0.27 0.28 0.28 0.31 0.35 0.32 0.21 0.24 0.30 0.33 0.37 0.39 0.43 0.46 0.46 0.45 0.44 0.42 0.42 0.41 0.44 0.67 0.80 0.75 0.73 0.84 1.13 1.28 1.34 1.26 1.17 0.96 0.70 0.59 0.57 0.54 0.49
0.27 0.35 0.32 0.33 0.31 0.33 0.24 0.33 0.32 0.31 0.30 0.21 0.37 0.15 0.23 0.28 0.30 0.33 0.38 0.43 0.46 0.49 0.55 0.52 0.43 0.40 0.41 0.46 0.75 0.80 0.79 0.77 0.90 1.00 1.17 1.21 1.15 1.05 0.93 0.65 0.59 0.56 0.54 0.50
0.25 0.29 0.31 0.31 0.31 0.35 0.27 0.35 0.33 0.33 0.30 0.30 0.27 0.25 0.20 0.28 0.27 0.33 0.39 0.43 0.47 0.51 0.55 0.60 0.49 0.40 0.43 0.56 0.77 0.81 0.76 0.80 0.95 1.00 1.22 1.19 1.19 1.05 0.86 0.65 0.56 0.54 0.53 0.51
0.29 0.39 0.38 0.37 0.37 0.37 0.37 0.33 0.33 0.33 0.32 0.20 0.26 0.26 0.18 0.25 0.29 0.32 0.39 0.47 0.50 0.53 0.56 0.61 0.55 0.42 0.42 0.63 0.77 0.77 0.80 0.81 0.93 1.03 1.21 1.14 1.14 1.08 0.78 0.61 0.54 0.53 0.53 0.53
0.25 0.28 0.37 0.42 0.32 0.34 0.34 0.29 0.21 0.18 0.20 0.17 0.26 0.23 0.24 0.29 0.34 0.37 0.43 0.50 0.53 0.55 0.56 0.62 0.53 0.39 0.41 0.63 0.69 0.74 0.83 0.79 1.00 1.05 1.16 1.16 1.08 1.01 0.75 0.61 0.56 0.53 0.53 0.55
0.20 0.17 0.30 0.41 0.35 0.30 0.28 0.32 0.24 0.15 0.15 0.15 0.26 0.20 0.25 0.33 0.38 0.46 0.51 0.51 0.56 0.60 0.62 0.62 0.52 0.40 0.50 0.62 0.66 0.77 0.84 0.85 1.01 1.10 1.12 1.13 1.07 0.91 0.74 0.65 0.60 0.58 0.57 0.58
0.20 0.20 0.33 0.40 0.40 0.37 0.28 0.29 0.38 0.26 0.25 0.19 0.22 0.24 0.28 0.34 0.39 0.44 0.46 0.50 0.58 0.61 0.64 0.60 0.54 0.45 0.62 0.58 0.63 0.75 0.81 0.89 1.08 1.13 1.04 1.04 1.04 0.90 0.73 0.69 0.65 0.64 0.65 0.64
0.26 0.18 0.28 0.37 0.41 0.38 0.33 0.37 0.26 0.27 0.17 0.13 0.18 0.20 0.23 0.29 0.37 0.41 0.42 0.51 0.57 0.61 0.67 0.57 0.56 0.60 0.61 0.60 0.67 0.82 0.88 0.92 1.05 1.05 1.04 1.00 0.95 0.85 0.79 0.73 0.67 0.67 0.67 0.66
0.30 0.26 0.24 0.36 0.34 0.27 0.29 0.29 0.35 0.32 0.28 0.20 0.16 0.17 0.31 0.35 0.40 0.40 0.46 0.55 0.57 0.63 0.63 0.59 0.66 0.67 0.61 0.64 0.75 0.84 0.91 0.97 1.03 1.00 1.00 0.96 0.91 0.85 0.77 0.70 0.68 0.68 0.67 0.65
0.32 0.27 0.20 0.28 0.36 0.30 0.28 0.28 0.30 0.24 0.22 0.26 0.25 0.20 0.36 0.39 0.40 0.43 0.54 0.57 0.62 0.64 0.68 0.71 0.71 0.65 0.60 0.66 0.78 0.85 0.96 0.97 1.02 1.03 1.01 0.96 0.85 0.80 0.75 0.71 0.69 0.69 0.66 0.63
0.32 0.25 0.19 0.23 0.29 0.33 0.26 0.26 0.28 0.28 0.31 0.24 0.23 0.22 0.37 0.38 0.40 0.50 0.55 0.61 0.62 0.61 0.63 0.66 0.66 0.59 0.64 0.72 0.77 0.87 0.96 0.96 0.97 0.95 0.98 0.98 0.91 0.83 0.80 0.78 0.73 0.71 0.66 0.58
0.35 0.26 0.23 0.22 0.27 0.29 0.22 0.26 0.30 0.30 0.25 0.24 0.26 0.28 0.32 0.33 0.39 0.53 0.57 0.62 0.60 0.55 0.57 0.62 0.61 0.66 0.72 0.74 0.76 0.87 0.92 0.96 0.97 1.01 1.01 0.97 0.97 0.96 0.91 0.83 0.75 0.67 0.58 0.49
0.32 0.21 0.25 0.30 0.33 0.28 0.24 0.24 0.26 0.27 0.28 0.26 0.26 0.28 0.30 0.35 0.47 0.54 0.60 0.63 0.58 0.53 0.56 0.59 0.63 0.69 0.72 0.74 0.78 0.79 0.87 0.94 0.99 0.97 0.98 0.97 0.96 0.93 0.85 0.75 0.69 0.63 0.55 0.48
0.34 0.20 0.25 0.25 0.31 0.25 0.21 0.24 0.26 0.26 0.27 0.28 0.26 0.28 0.33 0.42 0.57 0.58 0.61 0.62 0.58 0.56 0.58 0.60 0.66 0.69 0.69 0.71 0.76 0.81 0.87 0.89 0.95 0.95 0.94 0.94 0.85 0.80 0.73 0.68 0.65 0.59 0.53 0.44
0.29 0.25 0.23 0.20 0.28 0.23 0.18 0.23 0.22 0.23 0.27 0.26 0.23 0.30 0.35 0.38 0.52 0.58 0.61 0.65 0.64 0.65 0.65 0.68 0.71 0.71 0.73 0.77 0.81 0.78 0.80 0.90 0.91 0.90 0.90 0.86 0.80 0.75 0.70 0.64 0.56 0.47 0.39 0.37
0.26 0.25 0.27 0.22 0.27 0.15 0.22 0.27 0.25 0.24 0.26 0.29 0.29 0.32 0.37 0.38 0.53 0.65 0.69 0.68 0.68 0.69 0.72 0.77 0.80 0.81 0.82 0.83 0.82 0.85 0.86 0.89 0.89 0.87 0.83 0.81 0.76 0.69 0.61 0.53 0.46 0.42 0.40 0.40
0.30 0.26 0.24 0.22 0.24 0.23 0.22 0.24 0.24 0.22 0.22 0.30 0.27 0.32 0.37 0.38 0.50 0.60 0.71 0.74 0.74 0.77 0.80 0.82 0.87 0.89 0.90 0.89 0.90 0.90 0.89 0.89 0.88 0.83 0.82 0.80 0.76 0.66 0.53 0.44 0.40 0.40 0.40 0.38
0.28 0.32 0.26 0.25 0.23 0.19 0.21 0.25 0.31 0.26 0.20 0.30 0.28 0.31 0.36 0.37 0.37 0.53 0.70 0.72 0.74 0.77 0.82 0.85 0.88 0.91 0.89 0.88 0.89 0.87 0.87 0.87 0.86 0.85 0.82 0.75 0.65 0.53 0.48 0.45 0.42 0.39 0.37 0.35
0.22 0.24 0.22 0.24 0.24 0.26 0.28 0.29 0.29 0.18 0.20 0.28 0.30 0.33 0.37 0.34 0.41 0.59 0.74 0.75 0.79 0.81 0.84 0.86 0.88 0.87 0.88 0.90 0.89 0.86 0.86 0.85 0.86 0.83 0.76 0.64 0.54 0.47 0.42 0.40 0.40 0.38 0.35 0.33
0.18 0.20 0.21 0.25 0.24 0.22 0.35 0.27 0.22 0.27 0.30 0.31 0.31 0.34 0.37 0.39 0.43 0.61 0.73 0.68 0.78 0.80 0.81 0.85 0.86 0.86 0.89 0.91 0.89 0.84 0.83 0.84 0.79 0.71 0.60 0.52 0.47 0.41 0.39 0.37 0.35 0.33 0.32 0.29
0.17 0.22 0.22 0.25 0.26 0.36 0.37 0.30 0.33 0.33 0.30 0.29 0.31 0.35 0.39 0.38 0.41 0.63 0.71 0.67 0.67 0.76 0.85 0.87 0.85 0.85 0.88 0.90 0.88 0.83 0.76 0.72 0.64 0.54 0.48 0.43 0.39 0.38 0.36 0.32 0.31 0.31 0.30 0.27
0.20 0.26 0.24 0.24 0.28 0.31 0.34 0.33 0.35 0.36 0.34 0.32 0.34 0.35 0.40 0.39 0.42 0.58 0.69 0.68 0.69 0.70 0.72 0.80 0.83 0.81 0.79 0.81 0.77 0.71 0.65 0.55 0.46 0.43 0.40 0.38 0.36 0.34 0.32 0.31 0.33 0.30 0.26 0.25
0.21 0.24 0.24 0.22 0.26 0.30 0.34 0.36 0.35 0.38 0.38 0.34 0.36 0.38 0.38 0.42 0.43 0.53 0.57 0.67 0.68 0.71 0.67 0.67 0.67 0.66 0.63 0.64 0.61 0.55 0.48 0.45 0.42 0.39 0.36 0.35 0.34 0.31 0.31 0.33 0.30 0.26 0.26 0.26
0.23 0.21 0.17 0.17 0.24 0.25 0.33 0.39 0.41 0.38 0.38 0.36 0.36 0.37 0.40 0.41 0.46 0.49 0.52 0.56 0.60 0.59 0.61 0.60 0.60 0.58 0.53 0.50 0.47 0.45 0.45 0.42 0.38 0.36 0.36 0.35 0.32 0.32 0.34 0.30 0.26 0.27 0.27 0.28

GFSCGP_prec_pwat_180.txt.gz
Precipitable_Water
0.35 0.26 0.24 0.27 0.28 0.28 0.28 0.26 0.24 0.28 0.32 0.30 0.28 0.27 0.26 0.30 0.32 0.33 0.33 0.35 0.36 0.37 0.42 0.44 0.44 0.46 0.45 0.45 0.46 0.48 0.62 0.70 0.68 0.64 0.64 0.80 1.03 1.34 1.34 1.31 1.23 1.00 0.72 0.59
0.27 0.21 0.29 0.31 0.30 0.29 0.29 0.26 0.23 0.28 0.31 0.30 0.26 0.24 0.28 0.29 0.31 0.33 0.33 0.35 0.37 0.40 0.45 0.47 0.47 0.47 0.48 0.47 0.45 0.50 0.62 0.69 0.71 0.71 0.70 0.77 0.93 1.25 1.36 1.32 1.20 0.95 0.69 0.58
0.21 0.23 0.31 0.28 0.27 0.26 0.28 0.24 0.25 0.23 0.28 0.33 0.28 0.20 0.23 0.27 0.31 0.34 0.35 0.39 0.43 0.44 0.44 0.46 0.48 0.52 0.52 0.49 0.48 0.53 0.65 0.74 0.76 0.79 0.75 0.81 0.90 1.05 1.23 1.27 1.17 0.89 0.68 0.57
0.22 0.30 0.26 0.26 0.25 0.29 0.22 0.29 0.28 0.25 0.26 0.19 0.34 0.16 0.23 0.27 0.28 0.32 0.37 0.42 0.43 0.44 0.47 0.49 0.50 0.50 0.56 0.55 0.52 0.58 0.64 0.77 0.83 0.79 0.72 0.73 0.76 0.84 1.07 1.14 1.13 0.85 0.64 0.55
0.18 0.23 0.24 0.23 0.25 0.31 0.23 0.31 0.30 0.28 0.26 0.26 0.22 0.25 0.21 0.29 0.25 0.28 0.33 0.38 0.46 0.50 0.52 0.49 0.50 0.52 0.55 0.60 0.57 0.61 0.66 0.75 0.83 0.84 0.73 0.75 0.78 0.94 1.09 1.13 0.99 0.80 0.63 0.53
0.24 0.32 0.31 0.29 0.32 0.33 0.34 0.32 0.28 0.27 0.28 0.17 0.22 0.29 0.18 0.23 0.26 0.31 0.38 0.43 0.47 0.50 0.52 0.53 0.59 0.60 0.57 0.62 0.62 0.62 0.68 0.77 0.83 0.83 0.78 0.79 0.84 1.00 1.09 1.09 0.92 0.74 0.59 0.53
0.21 0.23 0.32 0.36 0.26 0.33 0.32 0.26 0.18 0.18 0.16 0.14 0.23 0.20 0.20 0.27 0.34 0.36 0.39 0.43 0.46 0.49 0.52 0.59 0.62 0.65 0.65 0.64 0.64 0.65 0.70 0.74 0.82 0.82 0.83 0.81 0.90 1.03 1.09 1.02 0.86 0.69 0.56 0.52
0.15 0.11 0.25 0.32 0.29 0.28 0.30 0.28 0.22 0.14 0.14 0.13 0.24 0.18 0.22 0.32 0.37 0.41 0.43 0.45 0.49 0.50 0.56 0.62 0.64 0.67 0.63 0.65 0.61 0.66 0.71 0.75 0.82 0.86 0.85 0.91 0.94 1.08 1.05 0.98 0.79 0.65 0.58 0.56
0.15 0.15 0.27 0.30 0.33 0.35 0.30 0.25 0.35 0.26 0.24 0.18 0.18 0.22 0.26 0.33 0.36 0.40 0.43 0.44 0.48 0.57 0.61 0.62 0.68 0.61 0.64 0.62 0.64 0.68 0.71 0.79 0.84 0.90 0.89 0.94 1.03 1.07 1.07 1.02 0.75 0.70 0.66 0.64
0.22 0.13 0.22 0.27 0.32 0.37 0.34 0.36 0.25 0.27 0.17 0.13 0.17 0.20 0.21 0.28 0.34 0.40 0.41 0.43 0.49 0.61 0.62 0.66 0.60 0.64 0.70 0.66 0.72 0.73 0.76 0.84 0.90 0.90 0.92 0.98 1.00 1.04 1.03 0.97 0.86 0.73 0.68 0.67
0.26 0.21 0.18 0.25 0.23 0.27 0.32 0.29 0.32 0.32 0.29 0.18 0.15 0.18 0.30 0.32 0.38 0.39 0.42 0.47 0.54 0.60 0.65 0.64 0.63 0.73 0.77 0.72 0.72 0.73 0.81 0.85 0.87 0.94 0.95 0.97 0.95 0.96 0.98 0.87 0.79 0.71 0.68 0.64
0.28 0.23 0.15 0.16 0.25 0.32 0.31 0.27 0.27 0.22 0.20 0.24 0.24 0.20 0.35 0.38 0.42 0.44 0.49 0.56 0.60 0.65 0.69 0.72 0.75 0.78 0.71 0.65 0.70 0.75 0.86 0.87 0.91 0.96 0.95 0.99 1.00 0.99 0.90 0.82 0.77 0.72 0.67 0.65
0.29 0.21 0.13 0.13 0.21 0.28 0.28 0.32 0.30 0.29 0.27 0.22 0.22 0.20 0.35 0.40 0.40 0.43 0.56 0.59 0.61 0.60 0.62 0.69 0.75 0.72 0.63 0.67 0.76 0.83 0.87 0.87 0.93 0.91 0.96 0.95 0.95 0.92 0.81 0.77 0.74 0.70 0.65 0.61
0.33 0.22 0.17 0.12 0.15 0.23 0.26 0.29 0.28 0.26 0.21 0.21 0.24 0.26 0.32 0.35 0.38 0.47 0.56 0.59 0.60 0.56 0.61 0.67 0.68 0.61 0.68 0.76 0.79 0.82 0.87 0.91 0.91 0.95 0.94 0.92 0.89 0.84 0.79 0.75 0.71 0.66 0.61 0.55
0.30 0.18 0.20 0.22 0.23 0.24 0.28 0.27 0.25 0.23 0.24 0.22 0.23 0.27 0.30 0.35 0.38 0.50 0.60 0.58 0.55 0.53 0.59 0.62 0.65 0.68 0.73 0.76 0.76 0.79 0.89 0.92 0.92 0.91 0.92 0.91 0.89 0.84 0.76 0.71 0.70 0.64 0.57 0.49
0.33 0.21 0.23 0.17 0.20 0.24 0.23 0.25 0.25 0.24 0.23 0.24 0.27 0.25 0.31 0.37 0.41 0.52 0.61 0.56 0.54 0.53 0.56 0.64 0.70 0.74 0.75 0.75 0.76 0.76 0.82 0.87 0.91 0.90 0.90 0.92 0.91 0.88 0.81 0.77 0.73 0.65 0.54 0.46
0.28 0.24 0.20 0.13 0.19 0.20 0.19 0.24 0.22 0.22 0.23 0.23 0.22 0.27 0.30 0.35 0.35 0.51 0.61 0.60 0.58 0.58 0.59 0.62 0.68 0.71 0.73 0.75 0.80 0.77 0.79 0.89 0.88 0.87 0.86 0.86 0.85 0.82 0.79 0.73 0.63 0.53 0.45 0.47
0.26 0.25 0.24 0.15 0.18 0.12 0.22 0.30 0.28 0.22 0.24 0.25 0.27 0.28 0.30 0.37 0.38 0.59 0.68 0.65 0.64 0.65 0.70 0.75 0.77 0.76 0.77 0.83 0.86 0.81 0.83 0.84 0.86 0.83 0.85 0.84 0.79 0.75 0.69 0.61 0.53 0.51 0.52 0.47
0.31 0.26 0.21 0.16 0.15 0.19 0.23 0.24 0.24 0.21 0.20 0.26 0.25 0.28 0.33 0.38 0.41 0.58 0.71 0.73 0.72 0.74 0.77 0.80 0.83 0.83 0.83 0.82 0.81 0.81 0.79 0.82 0.82 0.81 0.82 0.80 0.77 0.69 0.62 0.54 0.48 0.42 0.39 0.39
0.27 0.29 0.23 0.19 0.15 0.14 0.23 0.29 0.34 0.24 0.19 0.29 0.28 0.29 0.33 0.36 0.27 0.47 0.69 0.75 0.77 0.80 0.82 0.82 0.85 0.85 0.85 0.84 0.85 0.82 0.80 0.80 0.80 0.81 0.81 0.78 0.72 0.64 0.53 0.47 0.43 0.42 0.40 0.41
0.20 0.22 0.18 0.19 0.19 0.21 0.30 0.34 0.34 0.16 0.20 0.28 0.29 0.31 0.33 0.33 0.35 0.54 0.71 0.74 0.80 0.80 0.82 0.85 0.85 0.83 0.84 0.86 0.86 0.82 0.82 0.80 0.82 0.82 0.81 0.75 0.68 0.56 0.47 0.43 0.43 0.42 0.39 0.38
0.20 0.17 0.17 0.22 0.19 0.16 0.33 0.33 0.27 0.27 0.31 0.29 0.29 0.31 0.34 0.38 0.42 0.64 0.67 0.76 0.78 0.77 0.80 0.82 0.82 0.82 0.85 0.85 0.83 0.80 0.79 0.84 0.83 0.80 0.74 0.65 0.57 0.50 0.44 0.41 0.41 0.39 0.37 0.33
0.20 0.20 0.18 0.20 0.20 0.31 0.34 0.33 0.36 0.32 0.32 0.33 0.31 0.32 0.37 0.39 0.46 0.67 0.66 0.65 0.77 0.81 0.80 0.83 0.83 0.81 0.84 0.87 0.87 0.82 0.82 0.82 0.78 0.73 0.64 0.54 0.47 0.42 0.40 0.37 0.35 0.33 0.30 0.27
0.27 0.27 0.21 0.22 0.23 0.30 0.33 0.36 0.38 0.35 0.35 0.37 0.35 0.36 0.37 0.39 0.45 0.60 0.67 0.66 0.70 0.80 0.82 0.83 0.83 0.82 0.82 0.85 0.85 0.82 0.79 0.75 0.66 0.56 0.50 0.46 0.40 0.38 0.37 0.34 0.33 0.30 0.28 0.28
0.26 0.23 0.22 0.21 0.24 0.28 0.29 0.33 0.37 0.38 0.39 0.38 0.37 0.38 0.36 0.42 0.43 0.55 0.66 0.68 0.72 0.71 0.76 0.82 0.80 0.79 0.77 0.80 0.78 0.74 0.70 0.62 0.52 0.46 0.42 0.38 0.37 0.35 0.34 0.34 0.32 0.29 0.30 0.29
0.27 0.22 0.19 0.17 0.25 0.25 0.25 0.32 0.39 0.40 0.39 0.38 0.36 0.37 0.40 0.41 0.47 0.49 0.57 0.65 0.68 0.69 0.67 0.69 0.70 0.70 0.68 0.66 0.63 0.60 0.57 0.50 0.45 0.41 0.37 0.35 0.34 0.33 0.31 0.31 0.30 0.32 0.31 0.29

GFSCGP_prec_pwat_183.txt.gz
Precipitable_Water
0.31 0.20 0.16 0.22 0.25 0.25 0.22 0.21 0.19 0.22 0.25 0.24 0.21 0.23 0.22 0.29 0.28 0.29 0.30 0.30 0.33 0.35 0.40 0.44 0.46 0.48 0.47 0.49 0.48 0.48 0.54 0.63 0.71 0.72 0.69 0.69 0.69 0.81 0.93 1.29 1.34 1.35 1.29 1.09
0.22 0.15 0.25 0.27 0.27 0.24 0.23 0.20 0.18 0.22 0.26 0.27 0.22 0.24 0.24 0.27 0.28 0.30 0.30 0.31 0.35 0.37 0.42 0.46 0.49 0.49 0.50 0.49 0.51 0.52 0.58 0.62 0.69 0.72 0.72 0.73 0.69 0.79 0.89 0.94 1.15 1.22 1.29 1.07
0.17 0.18 0.27 0.24 0.22 0.21 0.21 0.20 0.20 0.21 0.24 0.29 0.25 0.20 0.19 0.25 0.30 0.32 0.33 0.34 0.37 0.40 0.42 0.45 0.47 0.50 0.52 0.53 0.53 0.53 0.62 0.65 0.69 0.72 0.76 0.78 0.80 0.79 0.81 0.88 1.04 1.07 1.22 1.02
0.18 0.25 0.23 0.22 0.20 0.23 0.17 0.25 0.25 0.23 0.23 0.17 0.29 0.15 0.18 0.24 0.25 0.29 0.32 0.35 0.41 0.46 0.48 0.49 0.50 0.51 0.50 0.49 0.54 0.56 0.64 0.67 0.70 0.72 0.76 0.73 0.64 0.67 0.70 0.80 1.14 1.16 1.20 1.01
0.14 0.20 0.20 0.19 0.20 0.26 0.19 0.28 0.28 0.24 0.23 0.25 0.21 0.19 0.16 0.25 0.22 0.28 0.35 0.41 0.44 0.46 0.49 0.49 0.50 0.50 0.52 0.53 0.58 0.58 0.62 0.68 0.69 0.71 0.77 0.78 0.71 0.74 0.80 0.82 1.05 1.06 1.15 0.99
0.21 0.30 0.27 0.25 0.28 0.28 0.30 0.28 0.24 0.24 0.25 0.16 0.20 0.20 0.13 0.19 0.26 0.32 0.37 0.40 0.43 0.45 0.45 0.46 0.49 0.52 0.53 0.61 0.66 0.66 0.69 0.67 0.68 0.70 0.79 0.78 0.71 0.67 0.71 0.73 0.85 0.96 1.06 0.91
0.18 0.20 0.28 0.32 0.23 0.28 0.27 0.23 0.13 0.11 0.14 0.13 0.22 0.18 0.17 0.25 0.32 0.35 0.37 0.41 0.44 0.46 0.46 0.47 0.51 0.59 0.62 0.64 0.68 0.74 0.75 0.68 0.69 0.75 0.73 0.80 0.79 0.72 0.75 0.73 0.84 0.85 0.96 0.87
0.12 0.09 0.21 0.29 0.24 0.22 0.25 0.25 0.17 0.11 0.13 0.14 0.22 0.14 0.18 0.30 0.35 0.40 0.43 0.45 0.45 0.46 0.48 0.50 0.59 0.62 0.65 0.66 0.73 0.78 0.77 0.69 0.72 0.73 0.79 0.81 0.78 0.73 0.76 0.81 0.84 0.93 0.90 0.69
0.13 0.13 0.25 0.28 0.29 0.29 0.25 0.22 0.31 0.24 0.24 0.19 0.18 0.20 0.26 0.29 0.31 0.38 0.43 0.45 0.46 0.53 0.57 0.59 0.60 0.65 0.63 0.70 0.76 0.76 0.73 0.72 0.76 0.77 0.83 0.77 0.76 0.83 0.78 0.85 0.97 0.85 0.86 0.82
0.21 0.12 0.18 0.25 0.27 0.29 0.28 0.33 0.23 0.26 0.15 0.13 0.14 0.17 0.18 0.24 0.29 0.38 0.41 0.44 0.51 0.57 0.60 0.63 0.64 0.65 0.75 0.77 0.73 0.73 0.74 0.73 0.77 0.79 0.82 0.84 0.82 0.81 0.85 0.86 0.92 0.87 0.87 0.78
0.25 0.20 0.16 0.22 0.18 0.18 0.26 0.25 0.30 0.31 0.27 0.17 0.14 0.14 0.26 0.28 0.34 0.38 0.42 0.46 0.57 0.59 0.63 0.71 0.68 0.73 0.75 0.76 0.71 0.72 0.75 0.74 0.76 0.83 0.84 0.85 0.84 0.86 0.88 0.89 0.91 0.83 0.74 0.73
0.27 0.21 0.14 0.15 0.19 0.27 0.28 0.24 0.26 0.22 0.21 0.25 0.22 0.14 0.29 0.33 0.37 0.42 0.42 0.53 0.60 0.62 0.63 0.70 0.71 0.76 0.75 0.75 0.74 0.76 0.76 0.77 0.86 0.90 0.88 0.87 0.89 0.93 0.92 0.92 0.88 0.83 0.74 0.73
0.31 0.23 0.13 0.10 0.17 0.22 0.20 0.24 0.27 0.32 0.31 0.22 0.19 0.15 0.28 0.32 0.37 0.41 0.43 0.56 0.54 0.52 0.59 0.68 0.73 0.76 0.72 0.67 0.69 0.70 0.78 0.84 0.91 0.89 0.92 0.85 0.88 0.92 0.92 0.95 0.90 0.86 0.78 0.70
0.35 0.27 0.19 0.10 0.13 0.18 0.16 0.20 0.26 0.31 0.24 0.22 0.20 0.18 0.24 0.30 0.34 0.37 0.46 0.58 0.53 0.52 0.61 0.69 0.69 0.63 0.61 0.65 0.73 0.79 0.83 0.88 0.91 0.91 0.88 0.88 0.90 0.90 0.92 0.93 0.86 0.78 0.75 0.65
0.34 0.23 0.25 0.23 0.22 0.22 0.19 0.18 0.20 0.25 0.26 0.24 0.18 0.21 0.25 0.30 0.33 0.37 0.52 0.56 0.50 0.50 0.57 0.61 0.59 0.64 0.70 0.75 0.79 0.85 0.87 0.87 0.87 0.87 0.85 0.86 0.88 0.90 0.86 0.81 0.78 0.72 0.64 0.55
0.40 0.26 0.28 0.22 0.22 0.20 0.16 0.16 0.21 0.25 0.24 0.24 0.23 0.21 0.29 0.31 0.35 0.39 0.58 0.55 0.50 0.50 0.56 0.62 0.67 0.71 0.73 0.73 0.78 0.81 0.85 0.85 0.88 0.85 0.83 0.84 0.82 0.79 0.74 0.71 0.69 0.63 0.56 0.49
0.33 0.31 0.26 0.17 0.22 0.18 0.09 0.17 0.22 0.24 0.26 0.24 0.19 0.22 0.27 0.29 0.33 0.42 0.60 0.62 0.58 0.54 0.54 0.60 0.68 0.75 0.74 0.73 0.82 0.79 0.82 0.84 0.83 0.84 0.84 0.82 0.79 0.75 0.70 0.65 0.63 0.58 0.52 0.47
0.31 0.31 0.30 0.20 0.21 0.08 0.14 0.22 0.24 0.24 0.25 0.24 0.25 0.25 0.28 0.31 0.37 0.50 0.66 0.66 0.63 0.62 0.65 0.69 0.75 0.71 0.77 0.83 0.82 0.83 0.84 0.83 0.81 0.80 0.80 0.81 0.80 0.76 0.73 0.67 0.58 0.52 0.47 0.45
0.35 0.32 0.26 0.20 0.17 0.16 0.12 0.21 0.23 0.22 0.23 0.26 0.25 0.26 0.28 0.33 0.39 0.47 0.67 0.73 0.72 0.71 0.77 0.79 0.81 0.82 0.82 0.81 0.82 0.82 0.81 0.81 0.80 0.79 0.79 0.81 0.81 0.78 0.71 0.63 0.55 0.47 0.49 0.53
0.35 0.38 0.29 0.24 0.16 0.10 0.13 0.24 0.32 0.30 0.22 0.26 0.27 0.25 0.27 0.32 0.27 0.42 0.67 0.74 0.75 0.77 0.79 0.81 0.82 0.84 0.81 0.80 0.82 0.80 0.79 0.79 0.78 0.79 0.80 0.81 0.80 0.74 0.64 0.53 0.52 0.53 0.46 0.42
0.24 0.27 0.24 0.23 0.20 0.17 0.20 0.28 0.34 0.20 0.24 0.30 0.30 0.27 0.29 0.30 0.37 0.57 0.71 0.75 0.78 0.78 0.79 0.82 0.81 0.80 0.82 0.84 0.83 0.78 0.78 0.77 0.80 0.81 0.80 0.75 0.70 0.63 0.55 0.48 0.42 0.41 0.41 0.41
0.20 0.23 0.22 0.24 0.19 0.13 0.28 0.31 0.24 0.27 0.33 0.31 0.33 0.31 0.31 0.35 0.47 0.66 0.73 0.75 0.75 0.74 0.77 0.81 0.78 0.79 0.82 0.84 0.82 0.78 0.77 0.80 0.81 0.79 0.76 0.72 0.64 0.56 0.48 0.42 0.42 0.41 0.40 0.37
0.20 0.24 0.24 0.25 0.19 0.26 0.33 0.33 0.34 0.35 0.35 0.32 0.34 0.33 0.36 0.37 0.45 0.65 0.66 0.75 0.76 0.75 0.76 0.79 0.77 0.77 0.81 0.83 0.83 0.77 0.79 0.81 0.80 0.76 0.71 0.63 0.56 0.48 0.43 0.40 0.39 0.38 0.37 0.32
0.26 0.32 0.27 0.29 0.27 0.24 0.28 0.35 0.36 0.36 0.39 0.38 0.37 0.36 0.37 0.38 0.45 0.58 0.67 0.72 0.79 0.78 0.78 0.80 0.78 0.75 0.76 0.81 0.82 0.83 0.82 0.82 0.77 0.72 0.64 0.56 0.47 0.41 0.39 0.38 0.37 0.34 0.30 0.28
0.32 0.32 0.27 0.26 0.28 0.27 0.26 0.31 0.36 0.35 0.40 0.42 0.39 0.38 0.37 0.40 0.46 0.54 0.66 0.68 0.75 0.79 0.81 0.81 0.79 0.79 0.79 0.80 0.81 0.82 0.82 0.76 0.68 0.60 0.51 0.46 0.41 0.38 0.37 0.36 0.34 0.30 0.29 0.29
0.37 0.30 0.27 0.23 0.29 0.26 0.26 0.32 0.35 0.34 0.40 0.42 0.38 0.37 0.39 0.42 0.45 0.52 0.60 0.67 0.74 0.74 0.77 0.79 0.79 0.78 0.77 0.77 0.77 0.76 0.72 0.65 0.55 0.47 0.44 0.39 0.36 0.35 0.35 0.34 0.34 0.35 0.33 0.32

GFSCGP_prec_pwat_189.txt.gz
Precipitable_Water
0.25 0.14 0.10 0.15 0.18 0.18 0.17 0.15 0.13 0.16 0.21 0.19 0.17 0.18 0.15 0.19 0.21 0.23 0.23 0.23 0.27 0.29 0.34 0.41 0.45 0.48 0.49 0.50 0.49 0.48 0.48 0.54 0.59 0.60 0.60 0.61 0.60 0.64 0.68 0.76 0.75 0.77 0.97 1.28
0.16 0.09 0.18 0.23 0.21 0.19 0.17 0.14 0.13 0.16 0.22 0.21 0.18 0.17 0.17 0.18 0.20 0.23 0.23 0.25 0.28 0.32 0.36 0.42 0.46 0.48 0.49 0.50 0.52 0.52 0.51 0.57 0.63 0.65 0.64 0.64 0.64 0.67 0.69 0.77 0.75 0.78 0.83 1.04
0.13 0.15 0.23 0.21 0.18 0.16 0.16 0.13 0.14 0.14 0.21 0.23 0.19 0.12 0.15 0.17 0.21 0.24 0.28 0.34 0.36 0.36 0.38 0.42 0.45 0.47 0.49 0.49 0.49 0.50 0.51 0.54 0.60 0.64 0.70 0.72 0.72 0.71 0.69 0.73 0.75 0.77 0.82 0.88
0.16 0.23 0.20 0.18 0.16 0.20 0.12 0.20 0.20 0.19 0.18 0.11 0.22 0.09 0.15 0.16 0.18 0.21 0.25 0.34 0.36 0.39 0.41 0.41 0.42 0.42 0.45 0.47 0.49 0.50 0.52 0.53 0.58 0.62 0.63 0.63 0.58 0.56 0.64 0.68 0.75 0.79 0.81 0.85
0.13 0.16 0.18 0.16 0.17 0.23 0.16 0.25 0.22 0.21 0.18 0.17 0.17 0.14 0.14 0.18 0.15 0.19 0.25 0.33 0.36 0.39 0.40 0.40 0.41 0.44 0.47 0.49 0.50 0.53 0.55 0.55 0.57 0.64 0.62 0.60 0.60 0.62 0.67 0.71 0.70 0.73 0.78 0.75
0.20 0.28 0.24 0.21 0.25 0.26 0.27 0.21 0.19 0.20 0.19 0.10 0.14 0.15 0.11 0.15 0.17 0.21 0.27 0.31 0.36 0.37 0.40 0.42 0.46 0.52 0.56 0.61 0.64 0.64 0.62 0.58 0.57 0.66 0.67 0.65 0.63 0.63 0.62 0.65 0.67 0.69 0.71 0.77
0.18 0.18 0.27 0.27 0.19 0.23 0.23 0.17 0.09 0.08 0.08 0.08 0.18 0.14 0.14 0.20 0.22 0.25 0.26 0.29 0.35 0.38 0.41 0.44 0.48 0.57 0.59 0.63 0.67 0.67 0.64 0.64 0.65 0.66 0.70 0.71 0.73 0.68 0.61 0.64 0.67 0.69 0.66 0.72
0.13 0.09 0.19 0.29 0.21 0.18 0.20 0.20 0.13 0.08 0.08 0.09 0.17 0.11 0.12 0.23 0.27 0.29 0.31 0.35 0.37 0.39 0.42 0.47 0.53 0.54 0.57 0.67 0.72 0.72 0.67 0.64 0.69 0.72 0.75 0.80 0.85 0.77 0.69 0.68 0.69 0.75 0.66 0.69
0.15 0.14 0.24 0.26 0.29 0.27 0.22 0.19 0.26 0.18 0.20 0.14 0.12 0.14 0.16 0.23 0.25 0.29 0.30 0.33 0.35 0.41 0.45 0.51 0.52 0.55 0.61 0.69 0.73 0.77 0.71 0.69 0.71 0.76 0.80 0.81 0.90 0.82 0.74 0.73 0.76 0.75 0.74 0.68
0.24 0.16 0.23 0.25 0.30 0.30 0.28 0.31 0.19 0.23 0.11 0.08 0.10 0.11 0.10 0.18 0.22 0.28 0.29 0.32 0.36 0.44 0.48 0.52 0.55 0.64 0.69 0.75 0.81 0.81 0.82 0.80 0.80 0.82 0.82 0.91 0.90 0.87 0.80 0.79 0.76 0.74 0.72 0.83
0.31 0.25 0.22 0.28 0.23 0.21 0.25 0.24 0.25 0.25 0.22 0.13 0.10 0.08 0.16 0.21 0.25 0.27 0.29 0.33 0.39 0.45 0.51 0.50 0.61 0.70 0.74 0.80 0.81 0.80 0.79 0.82 0.84 0.88 0.90 0.90 0.90 0.85 0.82 0.79 0.79 0.76 0.75 0.79
0.33 0.28 0.22 0.23 0.28 0.32 0.28 0.24 0.25 0.18 0.16 0.20 0.17 0.10 0.21 0.26 0.29 0.29 0.30 0.35 0.42 0.49 0.55 0.52 0.60 0.65 0.76 0.73 0.74 0.75 0.81 0.81 0.83 0.86 0.88 0.87 0.85 0.84 0.78 0.79 0.79 0.80 0.76 0.74
0.37 0.28 0.21 0.21 0.24 0.28 0.24 0.27 0.26 0.24 0.24 0.15 0.14 0.10 0.20 0.25 0.29 0.31 0.31 0.35 0.42 0.51 0.59 0.52 0.55 0.55 0.60 0.65 0.69 0.71 0.74 0.77 0.81 0.84 0.85 0.85 0.84 0.79 0.78 0.80 0.74 0.78 0.74 0.76
0.42 0.33 0.27 0.20 0.21 0.24 0.21 0.24 0.26 0.26 0.20 0.16 0.14 0.14 0.19 0.24 0.28 0.30 0.32 0.36 0.45 0.56 0.60 0.53 0.57 0.63 0.67 0.71 0.74 0.75 0.73 0.77 0.78 0.78 0.76 0.78 0.78 0.79 0.77 0.79 0.75 0.78 0.74 0.73
0.42 0.29 0.30 0.27 0.26 0.27 0.26 0.26 0.25 0.22 0.21 0.19 0.13 0.19 0.22 0.25 0.28 0.29 0.31 0.38 0.52 0.58 0.57 0.51 0.58 0.63 0.69 0.72 0.78 0.82 0.84 0.84 0.81 0.76 0.74 0.73 0.78 0.76 0.75 0.78 0.77 0.76 0.75 0.74
0.46 0.29 0.31 0.24 0.28 0.27 0.22 0.24 0.20 0.21 0.21 0.22 0.22 0.20 0.27 0.29 0.29 0.27 0.33 0.49 0.57 0.60 0.57 0.53 0.58 0.67 0.73 0.73 0.75 0.80 0.80 0.85 0.87 0.81 0.80 0.77 0.79 0.75 0.74 0.74 0.70 0.72 0.73 0.74
0.35 0.31 0.25 0.18 0.25 0.23 0.15 0.15 0.18 0.19 0.21 0.21 0.18 0.22 0.28 0.28 0.27 0.28 0.42 0.58 0.64 0.62 0.61 0.57 0.58 0.66 0.69 0.72 0.77 0.73 0.74 0.78 0.80 0.79 0.79 0.79 0.75 0.76 0.73 0.75 0.73 0.73 0.74 0.74
0.27 0.26 0.25 0.18 0.20 0.09 0.16 0.24 0.23 0.21 0.21 0.24 0.21 0.26 0.28 0.30 0.31 0.34 0.61 0.65 0.66 0.67 0.66 0.65 0.63 0.70 0.72 0.75 0.78 0.76 0.75 0.74 0.74 0.76 0.76 0.77 0.77 0.75 0.75 0.73 0.72 0.70 0.68 0.64
0.29 0.24 0.19 0.15 0.15 0.14 0.16 0.18 0.20 0.20 0.16 0.24 0.25 0.26 0.28 0.32 0.31 0.36 0.60 0.71 0.69 0.71 0.74 0.75 0.77 0.77 0.76 0.77 0.79 0.77 0.73 0.74 0.72 0.71 0.71 0.73 0.74 0.72 0.71 0.69 0.69 0.68 0.63 0.59
0.28 0.26 0.19 0.18 0.14 0.11 0.18 0.23 0.27 0.26 0.14 0.27 0.28 0.29 0.30 0.31 0.24 0.30 0.55 0.73 0.71 0.76 0.78 0.78 0.81 0.79 0.77 0.79 0.80 0.75 0.72 0.70 0.68 0.69 0.70 0.72 0.72 0.71 0.70 0.69 0.67 0.64 0.57 0.45
0.16 0.22 0.18 0.18 0.17 0.17 0.23 0.23 0.30 0.18 0.18 0.30 0.31 0.33 0.35 0.30 0.32 0.38 0.62 0.73 0.72 0.74 0.77 0.80 0.80 0.78 0.77 0.79 0.78 0.72 0.70 0.68 0.71 0.73 0.72 0.71 0.71 0.71 0.70 0.66 0.61 0.49 0.44 0.45
0.11 0.11 0.11 0.15 0.13 0.11 0.26 0.26 0.21 0.28 0.32 0.32 0.33 0.35 0.38 0.36 0.37 0.41 0.62 0.73 0.70 0.69 0.73 0.77 0.75 0.75 0.78 0.80 0.77 0.71 0.68 0.72 0.75 0.74 0.72 0.70 0.69 0.67 0.66 0.59 0.51 0.46 0.45 0.46
0.14 0.13 0.10 0.14 0.14 0.22 0.30 0.30 0.35 0.36 0.34 0.32 0.34 0.36 0.40 0.39 0.36 0.42 0.61 0.75 0.72 0.69 0.71 0.76 0.75 0.74 0.75 0.78 0.78 0.72 0.73 0.75 0.75 0.74 0.71 0.69 0.63 0.58 0.52 0.48 0.47 0.49 0.51 0.44
0.26 0.26 0.20 0.20 0.21 0.22 0.22 0.22 0.30 0.33 0.32 0.33 0.36 0.37 0.42 0.39 0.38 0.42 0.60 0.74 0.75 0.73 0.71 0.75 0.75 0.74 0.73 0.77 0.77 0.77 0.76 0.76 0.75 0.72 0.70 0.69 0.62 0.57 0.57 0.57 0.50 0.45 0.42 0.42
0.22 0.31 0.27 0.25 0.25 0.26 0.24 0.24 0.28 0.33 0.33 0.36 0.36 0.38 0.42 0.40 0.39 0.44 0.55 0.70 0.76 0.76 0.74 0.74 0.73 0.74 0.73 0.76 0.76 0.77 0.77 0.75 0.72 0.71 0.69 0.65 0.60 0.50 0.46 0.47 0.46 0.43 0.40 0.35
0.20 0.17 0.20 0.22 0.25 0.25 0.21 0.26 0.30 0.33 0.33 0.36 0.34 0.38 0.45 0.42 0.41 0.46 0.53 0.67 0.77 0.77 0.78 0.74 0.73 0.74 0.75 0.76 0.77 0.78 0.79 0.75 0.70 0.65 0.58 0.55 0.51 0.47 0.46 0.44 0.40 0.38 0.33 0.32

GFSCGP_prec_pwat_195.txt.gz
Precipitable_Water
0.23 0.13 0.09 0.12 0.14 0.13 0.12 0.11 0.10 0.13 0.18 0.15 0.13 0.12 0.11 0.16 0.17 0.17 0.19 0.20 0.24 0.27 0.34 0.40 0.42 0.43 0.43 0.43 0.43 0.44 0.44 0.47 0.51 0.51 0.50 0.53 0.54 0.60 0.69 0.75 0.76 0.77 0.78 0.76
0.17 0.11 0.17 0.21 0.19 0.16 0.14 0.12 0.12 0.15 0.18 0.18 0.14 0.10 0.13 0.15 0.16 0.18 0.19 0.21 0.25 0.30 0.34 0.36 0.38 0.40 0.41 0.41 0.42 0.43 0.44 0.46 0.48 0.51 0.56 0.57 0.58 0.63 0.67 0.74 0.77 0.80 0.77 0.78
0.13 0.16 0.24 0.20 0.17 0.14 0.14 0.12 0.13 0.14 0.19 0.19 0.15 0.09 0.10 0.15 0.18 0.21 0.23 0.24 0.27 0.31 0.32 0.34 0.36 0.38 0.40 0.37 0.38 0.42 0.45 0.49 0.53 0.55 0.56 0.63 0.66 0.66 0.64 0.65 0.69 0.75 0.80 0.84
0.16 0.22 0.19 0.17 0.15 0.17 0.11 0.19 0.19 0.18 0.15 0.09 0.17 0.06 0.10 0.14 0.14 0.17 0.20 0.23 0.27 0.31 0.34 0.35 0.38 0.37 0.37 0.37 0.44 0.52 0.54 0.56 0.60 0.62 0.62 0.60 0.59 0.54 0.57 0.61 0.67 0.74 0.78 0.83
0.12 0.17 0.18 0.16 0.17 0.21 0.16 0.25 0.21 0.19 0.15 0.15 0.14 0.11 0.10 0.14 0.13 0.15 0.20 0.23 0.26 0.30 0.33 0.34 0.35 0.36 0.39 0.47 0.55 0.59 0.55 0.54 0.56 0.58 0.62 0.65 0.62 0.64 0.64 0.64 0.65 0.71 0.76 0.80
0.18 0.29 0.24 0.20 0.25 0.26 0.28 0.22 0.18 0.18 0.17 0.09 0.13 0.13 0.10 0.11 0.13 0.16 0.20 0.25 0.27 0.30 0.33 0.36 0.37 0.40 0.43 0.56 0.62 0.58 0.59 0.63 0.65 0.63 0.64 0.64 0.66 0.64 0.66 0.65 0.63 0.68 0.71 0.75
0.18 0.20 0.28 0.29 0.21 0.26 0.23 0.16 0.09 0.08 0.09 0.08 0.18 0.15 0.12 0.14 0.16 0.18 0.21 0.24 0.27 0.31 0.34 0.35 0.36 0.41 0.47 0.56 0.63 0.60 0.64 0.66 0.70 0.70 0.68 0.68 0.67 0.72 0.68 0.67 0.66 0.66 0.68 0.69
0.10 0.09 0.21 0.30 0.24 0.19 0.22 0.18 0.12 0.09 0.10 0.11 0.19 0.12 0.13 0.16 0.18 0.20 0.23 0.25 0.29 0.31 0.34 0.36 0.39 0.45 0.53 0.61 0.63 0.62 0.64 0.68 0.71 0.75 0.76 0.73 0.71 0.75 0.76 0.71 0.71 0.72 0.69 0.68
0.13 0.13 0.26 0.33 0.32 0.28 0.24 0.18 0.25 0.19 0.21 0.16 0.16 0.18 0.18 0.16 0.17 0.19 0.22 0.25 0.28 0.31 0.33 0.35 0.46 0.57 0.57 0.63 0.60 0.61 0.63 0.68 0.74 0.80 0.83 0.78 0.76 0.76 0.78 0.78 0.77 0.78 0.77 0.74
0.20 0.14 0.24 0.29 0.33 0.31 0.26 0.29 0.19 0.23 0.13 0.12 0.15 0.14 0.11 0.12 0.15 0.19 0.22 0.26 0.29 0.33 0.35 0.49 0.57 0.56 0.60 0.63 0.63 0.65 0.70 0.67 0.73 0.82 0.85 0.84 0.81 0.84 0.83 0.83 0.80 0.79 0.80 0.77
0.28 0.21 0.20 0.26 0.22 0.21 0.25 0.25 0.27 0.27 0.23 0.17 0.13 0.12 0.18 0.16 0.19 0.21 0.25 0.28 0.32 0.33 0.37 0.62 0.59 0.60 0.62 0.63 0.67 0.69 0.70 0.69 0.68 0.78 0.84 0.90 0.87 0.86 0.87 0.84 0.83 0.79 0.82 0.80
0.32 0.27 0.19 0.21 0.28 0.31 0.30 0.27 0.28 0.22 0.20 0.24 0.20 0.13 0.21 0.20 0.22 0.25 0.26 0.29 0.34 0.34 0.48 0.69 0.65 0.62 0.58 0.63 0.71 0.73 0.78 0.77 0.74 0.76 0.82 0.85 0.90 0.88 0.86 0.85 0.82 0.84 0.82 0.81
0.33 0.27 0.20 0.21 0.27 0.32 0.28 0.30 0.31 0.32 0.31 0.22 0.17 0.13 0.21 0.22 0.25 0.27 0.26 0.30 0.32 0.37 0.56 0.69 0.68 0.63 0.56 0.62 0.71 0.75 0.78 0.79 0.81 0.74 0.78 0.83 0.86 0.86 0.85 0.85 0.86 0.86 0.82 0.79
0.40 0.31 0.26 0.20 0.23 0.28 0.26 0.29 0.33 0.32 0.25 0.20 0.19 0.15 0.20 0.23 0.24 0.26 0.27 0.31 0.31 0.46 0.61 0.66 0.68 0.67 0.61 0.64 0.71 0.73 0.76 0.78 0.83 0.78 0.75 0.79 0.80 0.83 0.86 0.86 0.85 0.84 0.84 0.79
0.41 0.31 0.33 0.32 0.31 0.31 0.30 0.30 0.32 0.30 0.24 0.20 0.19 0.20 0.22 0.25 0.26 0.27 0.29 0.30 0.35 0.49 0.63 0.65 0.68 0.70 0.67 0.65 0.71 0.74 0.73 0.73 0.81 0.78 0.73 0.74 0.82 0.84 0.83 0.84 0.85 0.85 0.79 0.77
0.44 0.30 0.32 0.27 0.32 0.32 0.29 0.32 0.30 0.28 0.25 0.24 0.24 0.21 0.28 0.29 0.29 0.29 0.29 0.32 0.35 0.54 0.63 0.65 0.70 0.72 0.71 0.68 0.70 0.74 0.70 0.78 0.83 0.83 0.71 0.72 0.78 0.79 0.80 0.81 0.82 0.82 0.80 0.76
0.35 0.33 0.29 0.23 0.29 0.28 0.23 0.26 0.24 0.24 0.24 0.23 0.19 0.23 0.27 0.25 0.27 0.29 0.31 0.33 0.39 0.57 0.65 0.65 0.70 0.73 0.76 0.75 0.74 0.71 0.70 0.78 0.81 0.80 0.73 0.68 0.74 0.73 0.75 0.76 0.76 0.75 0.72 0.70
0.32 0.31 0.30 0.23 0.25 0.16 0.21 0.26 0.26 0.23 0.22 0.25 0.24 0.26 0.27 0.27 0.29 0.33 0.35 0.36 0.42 0.62 0.65 0.66 0.72 0.75 0.76 0.76 0.75 0.74 0.71 0.73 0.76 0.76 0.74 0.72 0.71 0.71 0.72 0.69 0.68 0.68 0.70 0.66
0.33 0.29 0.24 0.19 0.18 0.19 0.19 0.18 0.20 0.18 0.18 0.25 0.26 0.28 0.27 0.28 0.28 0.30 0.38 0.38 0.48 0.67 0.68 0.69 0.74 0.76 0.76 0.75 0.73 0.71 0.68 0.69 0.72 0.72 0.73 0.72 0.70 0.68 0.69 0.69 0.68 0.67 0.67 0.68
0.29 0.28 0.21 0.20 0.15 0.11 0.16 0.25 0.28 0.26 0.14 0.23 0.27 0.26 0.26 0.28 0.21 0.26 0.35 0.38 0.51 0.71 0.72 0.70 0.74 0.76 0.74 0.74 0.72 0.68 0.65 0.66 0.66 0.69 0.69 0.71 0.70 0.69 0.67 0.69 0.68 0.64 0.65 0.66
0.20 0.23 0.18 0.17 0.14 0.16 0.19 0.21 0.26 0.14 0.14 0.28 0.30 0.30 0.29 0.27 0.29 0.32 0.37 0.39 0.55 0.71 0.72 0.73 0.74 0.73 0.73 0.74 0.70 0.66 0.65 0.62 0.65 0.67 0.68 0.68 0.68 0.68 0.67 0.67 0.67 0.66 0.65 0.61
0.14 0.15 0.16 0.18 0.15 0.12 0.22 0.24 0.18 0.24 0.30 0.26 0.25 0.29 0.28 0.30 0.33 0.34 0.37 0.40 0.55 0.69 0.71 0.73 0.71 0.71 0.73 0.73 0.70 0.67 0.65 0.67 0.68 0.68 0.66 0.66 0.68 0.68 0.68 0.66 0.65 0.60 0.56 0.52
0.13 0.14 0.12 0.14 0.13 0.18 0.24 0.24 0.28 0.27 0.24 0.20 0.25 0.28 0.28 0.30 0.33 0.34 0.37 0.41 0.56 0.70 0.72 0.73 0.72 0.72 0.73 0.74 0.72 0.67 0.66 0.68 0.67 0.66 0.64 0.65 0.66 0.67 0.67 0.65 0.62 0.55 0.48 0.45
0.22 0.23 0.17 0.16 0.17 0.18 0.19 0.20 0.21 0.23 0.23 0.23 0.28 0.28 0.29 0.29 0.35 0.35 0.38 0.41 0.56 0.71 0.72 0.72 0.72 0.70 0.70 0.73 0.73 0.72 0.70 0.69 0.67 0.65 0.65 0.65 0.64 0.64 0.63 0.58 0.52 0.48 0.46 0.43
0.12 0.14 0.15 0.16 0.18 0.18 0.17 0.17 0.20 0.21 0.26 0.24 0.28 0.28 0.28 0.31 0.36 0.35 0.38 0.42 0.56 0.73 0.74 0.72 0.72 0.71 0.70 0.72 0.72 0.73 0.73 0.70 0.66 0.65 0.65 0.64 0.61 0.55 0.50 0.47 0.47 0.48 0.51 0.53
0.15 0.11 0.09 0.07 0.10 0.11 0.11 0.12 0.16 0.18 0.19 0.21 0.22 0.22 0.24 0.35 0.38 0.36 0.40 0.44 0.57 0.75 0.75 0.71 0.72 0.73 0.73 0.73 0.73 0.73 0.74 0.72 0.68 0.65 0.63 0.58 0.54 0.50 0.49 0.51 0.54 0.58 0.56 0.54